World > North America > United States > California

Oakland, California Regional Weather

Lat: 37.77N, Lon: 122.22W
Wx Zone: CAZ508
Feedback

Oakland, CA Regional Weather

Expires:201908241900;;145201
ASUS46 KSTO 241815
RWRCA 

NORTHERN AND CENTRAL CA REGIONAL WEATHER ROUNDUP
NATIONAL WEATHER SERVICE SACRAMENTO CA 
1100 AM PDT SAT AUG 24 2019

NOTE: FAIR INDICATES FEW OR NO CLOUDS BELOW 12,000 FEET WITH NO
SIGNIFICANT WEATHER AND/OR OBSTRUCTIONS TO VISIBILITY.


CAZ006-505>513-241900-
BAY AREA
  
CITY           SKY/WX    TMP DP  RH WIND       PRES   REMARKS
SANTA ROSA     SUNNY     70  58  65 S3        29.96S                  
SAN RAFAEL     N/A       MM  MM  MM MISG
NAPA           SUNNY     72  58  61 S9        29.94S                  
CONCORD        SUNNY     76  57  51 NW10      29.93R                  
OAKLAND CITY   N/A       62  MM  MM MISG
OAKLAND        PTSUNNY   69  59  70 NW7       29.97R                  
SAN FRAN CITY  N/A       60  MM  94 MISG
SAN FRAN ARPT  MOSUNNY   70  59  68 N7        29.95R                  
LIVERMORE      SUNNY     78  59  51 VRB3      29.92S                  
HAYWARD        MOSUNNY   70  59  68 W9        29.95R                  
REDWOOD CITY   N/A       71  MM  75 MISG
MOFFETT ARPT   SUNNY     73  61  65 N8        29.95R                  
SAN JOSE ARPT  SUNNY     75  58  55 CALM      29.94S                  
$$

SKY/WX - Weather  TMP - Temperature  DP - Dew Point  RH - Relative Humidity
WIND - Wind Direction/Speed PRES - Barometric Pressure VSB - Visibility
WCI - Wind Chill Index E13G22 Wind - East Wind 13 mph/Gusts of 22 mph